AUI3155 UKLL-EPWA

Flight info

Callsign AUI3155
Flight time N/A
Altitude 30000
Route GOTIX L621 LIMVI
Aircraft B738/M-SDE2E3FGHIRWXY/LB1

Departure

Time 2026-05-05 12:35
Airport Lviv International Airport (UKLL)

Arrival

Time N/A
Airport Warsaw Chopin Airport (EPWA)
Time Latitude Longitude Altitude Speed Heading
2026-05-05 11:59 49.81266 23.95906 1050 ft 0 kts 45°
2026-05-05 12:20 49.81262 23.95901 1050 ft 2 kts 38°
2026-05-05 12:21 49.81250 23.95888 1050 ft 2 kts 36°
2026-05-05 12:21 49.81238 23.95874 1050 ft 2 kts 37°
2026-05-05 12:21 49.81226 23.95860 1050 ft 2 kts 37°
2026-05-05 12:21 49.81215 23.95847 1051 ft 1 kts 36°
2026-05-05 12:22 49.81210 23.95837 1051 ft 1 kts 93°
2026-05-05 12:22 49.81213 23.95826 1051 ft 0 kts 133°
2026-05-05 12:22 49.81218 23.95819 1051 ft 0 kts 136°
2026-05-05 12:30 49.81216 23.95821 1051 ft 0 kts 136°
2026-05-05 12:30 49.81214 23.95824 1051 ft 2 kts 136°
2026-05-05 12:31 49.81187 23.95864 1050 ft 8 kts 136°
2026-05-05 12:31 49.81131 23.95946 1049 ft 12 kts 137°
2026-05-05 12:31 49.81062 23.96025 1047 ft 13 kts 162°
2026-05-05 12:31 49.81007 23.96029 1047 ft 0 kts 188°
2026-05-05 12:32 49.80989 23.96024 1047 ft 5 kts 187°
2026-05-05 12:32 49.80913 23.96016 1047 ft 15 kts 182°
2026-05-05 12:32 49.80799 23.96097 1047 ft 21 kts 137°
2026-05-05 12:32 49.80668 23.96294 1046 ft 29 kts 136°
2026-05-05 12:33 49.80588 23.96570 1048 ft 27 kts 88°
2026-05-05 12:33 49.80529 23.96778 1049 ft 15 kts 178°
2026-05-05 12:33 49.80496 23.96695 1049 ft 0 kts 276°
2026-05-05 12:33 49.80494 23.96663 1049 ft 14 kts 258°
2026-05-05 12:34 49.80492 23.96550 1048 ft 9 kts 332°
2026-05-05 12:34 49.80497 23.96545 1048 ft 0 kts 322°
2026-05-05 12:34 49.80584 23.96424 1047 ft 49 kts 314°
2026-05-05 12:35 49.80986 23.95804 1050 ft 113 kts 317°
2026-05-05 12:35 49.81677 23.94757 1082 ft 162 kts 311°
2026-05-05 12:35 49.82501 23.93487 1523 ft 177 kts 313°
2026-05-05 12:35 49.83365 23.92193 2299 ft 171 kts 313°
2026-05-05 12:36 49.84249 23.90906 2865 ft 181 kts 315°
2026-05-05 12:36 49.85167 23.89595 3406 ft 182 kts 314°
2026-05-05 12:36 49.86131 23.88163 3704 ft 195 kts 312°
2026-05-05 12:36 49.87078 23.86638 4022 ft 207 kts 312°
2026-05-05 12:37 49.88146 23.85018 4214 ft 224 kts 314°
2026-05-05 12:37 49.89301 23.83305 4417 ft 237 kts 311°
2026-05-05 12:37 49.90252 23.81112 4582 ft 254 kts 289°
2026-05-05 12:37 49.90595 23.78454 5169 ft 258 kts 272°
2026-05-05 12:38 49.90599 23.75597 5700 ft 275 kts 265°
2026-05-05 12:38 49.90484 23.72649 6555 ft 278 kts 266°
2026-05-05 12:38 49.90410 23.69678 7445 ft 279 kts 267°
2026-05-05 12:38 49.90365 23.66644 8267 ft 282 kts 268°
2026-05-05 12:39 49.90333 23.63618 9062 ft 286 kts 268°
2026-05-05 12:39 49.90306 23.60539 9841 ft 289 kts 268°
2026-05-05 12:39 49.90278 23.57352 10391 ft 301 kts 268°
2026-05-05 12:39 49.90249 23.54002 10515 ft 327 kts 268°
2026-05-05 12:40 49.90219 23.50410 11298 ft 328 kts 269°
2026-05-05 12:40 49.90400 23.47075 12637 ft 312 kts 281°
2026-05-05 12:40 49.91133 23.43944 13550 ft 311 kts 298°
2026-05-05 12:40 49.92350 23.41099 13896 ft 330 kts 306°
2026-05-05 12:41 49.93795 23.38162 13997 ft 354 kts 307°
2026-05-05 12:41 49.95299 23.35136 14738 ft 355 kts 307°
2026-05-05 12:41 49.96774 23.32167 15864 ft 346 kts 306°
2026-05-05 12:41 49.98289 23.29093 15944 ft 368 kts 306°
2026-05-05 12:42 49.99904 23.25867 16357 ft 380 kts 308°
2026-05-05 12:42 50.01706 23.22895 16990 ft 386 kts 316°
2026-05-05 12:42 50.03840 23.20310 17601 ft 392 kts 326°
2026-05-05 12:42 50.06239 23.18225 18249 ft 396 kts 331°
2026-05-05 12:43 50.08680 23.16340 18824 ft 400 kts 332°
2026-05-05 12:43 50.11202 23.14434 19398 ft 403 kts 332°
2026-05-05 12:43 50.13746 23.12515 19962 ft 406 kts 332°
2026-05-05 12:43 50.16281 23.10603 20417 ft 412 kts 332°
2026-05-05 12:44 50.18928 23.08603 20487 ft 427 kts 332°
2026-05-05 12:44 50.21612 23.06572 20542 ft 441 kts 332°
2026-05-05 12:44 50.24436 23.04430 20622 ft 454 kts 332°
2026-05-05 12:44 50.27220 23.02133 21004 ft 457 kts 329°
2026-05-05 12:45 50.30006 22.99710 21420 ft 459 kts 329°
2026-05-05 12:45 50.32785 22.97282 22148 ft 454 kts 329°
2026-05-05 12:45 50.36409 22.94116 23182 ft 446 kts 329°
2026-05-05 12:45 50.38212 22.92540 23702 ft 441 kts 329°
2026-05-05 12:46 50.40866 22.90221 24479 ft 435 kts 329°
2026-05-05 12:46 50.43449 22.87961 25279 ft 427 kts 329°
2026-05-05 12:46 50.46001 22.85728 26301 ft 415 kts 329°
2026-05-05 12:46 50.48463 22.83569 27321 ft 401 kts 329°
2026-05-05 12:47 50.50851 22.81474 28351 ft 386 kts 330°
2026-05-05 12:47 50.53102 22.79494 29361 ft 370 kts 330°
2026-05-05 12:47 50.55302 22.77564 30393 ft 353 kts 330°
2026-05-05 12:47 50.57376 22.75748 31412 ft 334 kts 330°
2026-05-05 12:48 50.59378 22.73992 31823 ft 334 kts 330°
2026-05-05 12:48 50.61419 22.72201 32077 ft 338 kts 330°
2026-05-05 12:48 50.63489 22.70375 32329 ft 342 kts 330°
2026-05-05 12:48 50.65553 22.68521 32558 ft 346 kts 330°
2026-05-05 12:49 50.67651 22.66623 32788 ft 350 kts 330°
2026-05-05 12:49 50.69781 22.64693 33020 ft 354 kts 330°
2026-05-05 12:49 50.71917 22.62760 33247 ft 358 kts 330°
2026-05-05 12:49 50.74083 22.60799 33471 ft 362 kts 330°
2026-05-05 12:50 50.76259 22.58826 33696 ft 365 kts 330°
2026-05-05 12:50 50.78469 22.56818 33874 ft 370 kts 330°
2026-05-05 12:50 50.83037 22.52645 33886 ft 388 kts 330°
2026-05-05 12:51 50.87804 22.48273 33883 ft 406 kts 330°
2026-05-05 12:51 50.92755 22.43730 33884 ft 422 kts 330°
2026-05-05 12:52 50.97947 22.38954 33885 ft 437 kts 330°
2026-05-05 12:52 51.03290 22.34035 33884 ft 450 kts 329°
2026-05-05 12:53 51.08750 22.29001 33884 ft 452 kts 329°
2026-05-05 12:53 51.14180 22.23982 33884 ft 449 kts 329°
2026-05-05 12:54 51.22258 22.16495 33885 ft 449 kts 329°
2026-05-05 12:55 51.27649 22.11483 33884 ft 450 kts 329°
2026-05-05 12:55 51.33050 22.06468 33884 ft 450 kts 329°
2026-05-05 12:56 51.38459 22.01453 33879 ft 449 kts 329°
2026-05-05 12:56 51.43857 21.96437 33873 ft 449 kts 328°
2026-05-05 12:57 51.49067 21.90981 33866 ft 449 kts 322°
2026-05-05 12:57 51.53907 21.84588 33860 ft 449 kts 319°
2026-05-05 12:58 51.58641 21.78036 33857 ft 449 kts 319°
2026-05-05 12:58 51.63312 21.71441 33858 ft 449 kts 319°
2026-05-05 12:59 51.67956 21.64796 33858 ft 449 kts 318°
2026-05-05 12:59 51.72628 21.58058 33858 ft 449 kts 318°
2026-05-05 13:00 51.79553 21.47996 33858 ft 449 kts 318°
2026-05-05 13:01 51.88811 21.34452 33851 ft 449 kts 317°
2026-05-05 13:01 51.93433 21.27648 33840 ft 449 kts 317°
2026-05-05 13:02 51.98030 21.20865 33137 ft 446 kts 317°
2026-05-05 13:02 52.00278 21.17544 32918 ft 431 kts 317°
2026-05-05 13:02 52.02461 21.14312 32531 ft 422 kts 317°
2026-05-05 13:03 52.04613 21.11123 31799 ft 422 kts 317°
2026-05-05 13:03 52.06778 21.07911 31091 ft 421 kts 317°
2026-05-05 13:03 52.08986 21.04836 30268 ft 423 kts 321°
2026-05-05 13:03 52.11425 21.02250 29374 ft 428 kts 333°